Wind_Speed
16 14 12 10 9 8 7 5 3 1 1 2 4 5 6 7 8 10 11 11 12 12 12 11 11 11 11 10 10 10 10 9 9 7 7 6 5 5 3 3 2 2 1 1
18 18 16 13 11 10 8 6 4 3 1 1 2 3 3 5 6 7 9 10 11 11 11 11 10 11 11 11 11 10 10 10 9 8 7 6 5 5 4 3 3 2 2 2
21 19 18 15 13 12 10 8 7 4 3 2 0 2 2 3 4 5 7 9 9 9 10 10 10 10 11 11 11 11 11 10 10 8 7 7 6 5 5 4 3 3 2 3
24 22 20 18 16 14 12 10 9 7 4 3 2 2 3 3 3 4 6 7 8 8 9 9 9 9 10 11 11 11 11 11 10 9 8 8 8 7 6 5 4 4 4 4
27 25 23 21 19 17 15 13 11 10 8 5 4 2 4 4 4 4 5 6 6 7 7 8 8 8 9 10 10 11 11 11 11 10 9 8 8 7 7 6 5 4 4 4
28 27 26 24 21 20 17 15 14 13 10 10 8 5 4 5 4 5 5 5 5 5 6 7 7 8 8 9 9 10 10 10 10 10 9 9 9 8 8 7 6 5 5 5
30 29 28 26 24 23 20 17 15 13 13 12 11 8 7 6 5 5 5 5 4 5 5 5 7 7 7 8 8 9 10 10 10 10 10 10 10 9 9 8 7 7 6 6
30 30 30 28 27 25 23 20 17 15 14 13 13 11 9 8 8 7 6 5 4 4 4 5 6 6 7 7 8 9 10 10 10 10 10 10 10 10 9 9 8 8 7 7
30 30 30 30 29 28 26 23 20 18 16 14 13 12 10 10 10 9 8 7 5 5 5 6 6 6 6 7 7 9 9 10 10 10 10 10 11 11 10 10 10 9 9 8
32 31 31 31 30 30 28 26 23 20 18 16 15 13 11 12 11 10 9 9 8 7 7 7 7 7 7 7 7 8 9 9 10 10 11 11 12 11 11 11 11 11 10 10
33 32 32 32 33 31 30 29 26 23 21 18 16 15 15 13 13 12 11 10 10 9 9 9 9 8 8 7 8 8 8 9 10 11 11 12 12 12 12 13 13 12 12 11
34 33 32 33 33 32 31 30 29 26 25 23 19 18 17 15 14 14 12 12 11 11 10 10 10 10 10 9 9 8 9 9 10 11 12 12 12 12 13 14 14 13 13 13
35 35 33 32 33 33 33 32 30 28 26 24 22 19 20 17 16 15 14 13 13 12 12 12 12 12 11 11 11 10 10 10 10 11 12 12 12 13 13 14 14 15 15 14
35 35 34 31 29 31 33 33 32 30 28 26 25 22 21 20 18 17 16 15 15 15 14 15 15 14 13 12 12 12 12 12 12 12 13 13 13 14 14 15 15 16 17 16
34 35 35 34 33 32 32 32 33 32 30 28 26 25 24 22 20 20 19 17 17 17 17 17 17 16 15 14 14 14 13 13 13 13 14 14 15 15 15 16 16 17 17 16
34 35 34 34 34 34 34 33 33 33 32 31 29 28 26 25 23 22 21 20 19 20 19 19 19 18 18 17 16 15 15 14 15 15 15 15 16 17 17 16 17 17 18 18
34 34 33 33 34 34 35 35 34 34 33 32 30 29 28 27 26 24 23 22 21 21 21 20 20 19 19 19 18 17 17 17 17 17 16 17 17 17 17 18 19 19 19 18
34 33 32 32 33 34 34 35 35 34 34 33 32 31 30 29 27 26 25 24 23 22 22 23 22 22 21 20 19 19 19 19 19 19 18 18 18 18 19 19 20 21 20 19
35 33 33 33 32 33 35 35 34 35 35 34 33 32 31 30 29 29 27 26 25 25 24 24 24 24 24 23 21 21 21 21 21 21 21 20 20 20 20 21 21 22 21 19
34 34 34 34 33 33 35 34 33 34 36 35 34 33 32 31 30 30 29 28 27 27 27 26 26 26 26 25 24 24 23 23 23 23 22 21 21 20 21 22 22 22 22 21
35 35 35 35 35 35 36 34 33 34 35 34 34 34 33 32 31 30 29 29 28 28 28 27 27 27 27 27 26 26 26 26 25 25 25 24 23 23 23 23 23 22 22 21
36 36 37 36 35 37 37 36 36 36 35 35 34 34 34 34 33 32 31 31 30 29 29 28 28 29 29 29 28 28 28 28 27 27 26 25 25 25 24 24 23 23 22 22
36 37 37 37 37 36 35 35 35 35 35 35 35 35 35 35 35 34 33 33 32 31 31 30 30 31 30 30 30 30 30 30 29 29 28 27 27 26 26 26 26 24 24 24
36 36 36 36 36 36 35 35 35 34 35 35 35 35 35 35 35 36 35 35 34 33 33 32 32 32 31 30 31 31 32 32 31 30 29 29 30 29 28 27 27 26 26 25
35 36 36 35 35 35 35 35 35 35 35 36 36 36 36 35 35 35 35 35 34 34 34 34 34 34 33 33 33 33 34 33 33 32 32 31 31 30 29 29 30 29 27 25
34 35 35 35 34 35 34 34 35 35 34 35 36 36 35 35 35 35 34 35 35 35 34 34 34 34 34 34 34 34 34 34 34 34 33 32 32 31 31 31 30 29 28 27
Wind_Direction
215 215 217 216 205 201 205 198 194 194 111 71 59 53 51 54 51 46 39 35 35 38 36 36 37 39 41 42 41 40 40 38 39 43 45 45 42 41 37 31 22 8 343 320
218 219 217 217 215 211 208 205 212 223 214 103 61 39 37 48 47 41 33 29 29 31 32 33 36 39 40 40 39 37 38 38 38 39 37 34 32 28 18 5 358 349 332 317
219 222 220 221 220 218 215 215 224 236 241 251 286 4 5 29 31 28 25 24 23 24 25 29 33 36 38 39 39 38 38 37 35 34 29 25 21 15 5 354 340 326 315 306
220 222 220 221 222 219 222 223 231 239 243 261 265 295 313 329 352 7 17 18 19 19 19 22 27 32 33 34 35 37 35 33 32 32 25 24 16 11 5 353 336 317 306 301
222 224 222 220 221 221 223 229 234 240 245 247 259 247 282 295 318 338 355 6 9 12 16 22 28 29 26 27 28 30 30 29 29 28 26 23 16 10 7 2 349 325 311 306
223 223 223 223 222 223 227 232 237 242 246 249 250 244 261 279 296 313 326 345 356 2 12 20 18 18 18 18 19 21 22 23 24 23 23 21 17 13 7 1 356 344 326 315
223 223 223 225 224 225 227 231 238 242 245 248 249 245 248 260 268 287 301 314 329 340 352 2 6 8 11 10 10 11 12 13 15 16 16 14 12 9 6 1 352 344 330 318
224 225 225 224 226 229 230 230 231 236 244 249 254 248 252 260 265 273 284 293 305 313 324 337 349 356 358 1 5 7 6 5 9 10 11 11 10 8 6 1 352 345 335 320
223 225 227 225 225 228 231 231 232 238 243 244 251 253 252 256 261 266 273 279 283 288 296 308 320 334 345 353 357 359 1 3 4 3 3 4 3 2 1 360 354 347 339 329
223 225 228 226 226 228 231 233 233 233 239 244 253 255 249 253 258 265 268 274 276 280 287 294 299 309 320 331 340 345 350 354 356 355 354 355 355 355 355 354 351 347 342 334
223 226 229 229 228 230 231 233 234 235 235 239 249 253 253 254 255 259 263 270 273 278 282 288 291 295 302 312 323 331 337 342 347 347 346 348 350 351 349 348 346 342 339 333
224 225 229 232 232 231 232 233 234 235 239 240 241 250 255 254 254 253 258 262 265 272 279 282 285 287 294 300 309 314 320 328 336 338 337 338 340 342 343 343 343 340 335 331
224 225 227 230 233 232 232 233 234 236 240 242 243 248 254 251 253 252 252 258 260 264 271 274 277 281 287 293 298 303 306 313 323 330 331 331 331 333 335 337 338 336 333 330
225 226 226 228 233 235 234 234 235 236 238 242 243 242 248 251 251 253 252 255 258 260 265 267 270 273 278 285 290 294 297 304 313 320 324 325 325 325 327 328 330 330 330 328
225 227 227 227 229 232 235 235 235 236 238 240 244 245 246 249 250 251 252 254 255 257 262 262 263 267 272 278 283 286 289 296 305 311 315 320 322 321 320 321 323 325 326 323
226 227 228 230 231 233 235 235 235 237 238 241 243 245 245 248 250 252 252 253 254 255 260 260 260 264 270 275 277 279 284 288 295 303 307 316 319 318 317 315 315 318 319 319
226 228 229 232 233 235 236 236 236 238 239 241 243 246 247 247 249 252 254 253 253 255 258 259 262 265 269 273 275 276 280 283 290 296 301 306 312 313 313 312 311 312 313 313
226 228 229 232 234 235 237 237 237 238 240 241 243 245 248 248 249 251 252 252 253 256 257 258 259 262 265 268 271 276 281 284 287 290 296 302 306 309 308 308 308 308 308 307
226 228 229 232 237 239 239 237 237 239 241 241 243 245 246 246 248 249 249 250 252 255 257 257 257 261 265 268 272 275 278 280 283 286 290 295 300 303 305 306 307 306 304 305
228 229 231 233 235 239 242 240 239 241 243 242 243 245 246 246 247 249 250 251 254 254 256 257 254 257 262 266 269 272 276 278 281 284 288 290 294 299 301 302 304 306 300 300
229 230 233 236 238 240 242 242 241 241 243 244 244 245 245 245 246 249 251 252 253 254 255 256 255 256 259 264 267 270 272 276 278 280 286 288 290 292 296 298 300 303 300 299
231 233 235 237 239 242 242 242 242 243 244 244 245 245 246 247 248 249 251 253 253 254 253 253 255 256 258 261 264 267 270 272 273 277 283 285 287 289 291 293 295 297 299 299
232 234 236 237 240 242 244 244 243 243 244 244 245 246 248 249 249 250 252 253 253 253 253 253 254 256 258 260 262 265 269 271 272 274 278 280 284 285 287 291 294 294 295 297
233 233 236 238 240 242 243 244 243 242 242 243 245 247 249 250 251 252 253 253 254 254 254 254 256 257 258 259 262 264 267 270 271 272 275 278 281 284 287 289 291 291 292 292
235 235 236 239 241 242 244 245 244 243 243 244 245 247 249 251 252 253 252 252 253 255 256 257 257 257 257 259 261 264 265 267 269 272 273 277 279 281 282 285 287 288 288 290
236 236 237 239 242 243 244 245 243 243 243 244 245 247 249 251 252 253 253 252 252 254 257 258 260 259 257 258 261 263 264 266 267 270 273 275 276 277 279 282 285 285 286 287
Height
5927 5930 5932 5934 5936 5938 5939 5940 5940 5940 5939 5938 5937 5937 5936 5934 5933 5932 5931 5929 5928 5926 5924 5922 5920 5918 5917 5915 5913 5912 5910 5909 5907 5906 5905 5905 5904 5903 5902 5902 5901 5901 5901 5901
5925 5928 5930 5932 5934 5936 5937 5939 5939 5939 5939 5939 5938 5937 5936 5935 5934 5933 5932 5931 5929 5928 5926 5924 5922 5920 5918 5916 5915 5913 5911 5910 5908 5907 5906 5906 5905 5904 5903 5902 5902 5901 5901 5900
5922 5926 5927 5929 5932 5934 5935 5938 5938 5939 5939 5939 5939 5939 5937 5936 5935 5934 5933 5932 5930 5929 5927 5925 5924 5922 5920 5918 5916 5914 5913 5911 5909 5908 5907 5906 5905 5904 5903 5902 5901 5901 5900 5900
5918 5921 5923 5926 5929 5931 5934 5935 5937 5937 5938 5939 5939 5940 5938 5936 5936 5935 5934 5932 5931 5930 5928 5926 5924 5923 5922 5920 5918 5916 5914 5912 5911 5909 5908 5907 5905 5904 5903 5902 5901 5900 5900 5899
5914 5917 5920 5923 5926 5929 5931 5933 5935 5935 5937 5938 5938 5939 5940 5936 5935 5935 5934 5933 5931 5930 5928 5927 5925 5924 5922 5921 5919 5917 5915 5914 5912 5910 5909 5907 5905 5904 5902 5901 5900 5899 5899 5898
5909 5913 5916 5919 5923 5925 5928 5931 5932 5933 5935 5937 5937 5938 5938 5936 5935 5934 5933 5932 5931 5930 5929 5927 5926 5925 5923 5922 5920 5918 5916 5914 5913 5911 5909 5907 5905 5904 5902 5901 5899 5898 5898 5897
5904 5907 5911 5915 5918 5921 5924 5928 5931 5932 5934 5935 5934 5935 5937 5935 5934 5933 5933 5932 5931 5930 5929 5928 5926 5925 5924 5922 5920 5919 5917 5915 5913 5911 5909 5908 5906 5904 5902 5900 5899 5898 5896 5896
5900 5904 5907 5910 5914 5917 5920 5924 5928 5931 5932 5933 5931 5932 5934 5933 5932 5932 5932 5931 5930 5930 5929 5928 5926 5925 5924 5922 5921 5919 5917 5915 5913 5911 5910 5908 5906 5904 5902 5900 5898 5897 5895 5894
5895 5900 5902 5905 5909 5913 5916 5919 5923 5926 5927 5929 5930 5930 5930 5930 5930 5930 5930 5929 5929 5928 5928 5927 5926 5925 5923 5922 5921 5919 5917 5916 5914 5912 5910 5908 5906 5903 5901 5899 5898 5896 5894 5893
5889 5894 5896 5900 5904 5907 5911 5915 5918 5921 5923 5926 5927 5927 5929 5927 5927 5928 5928 5927 5927 5927 5926 5925 5925 5924 5923 5922 5920 5919 5917 5915 5913 5911 5909 5907 5905 5903 5901 5899 5897 5895 5893 5892
5883 5888 5891 5894 5898 5902 5906 5909 5912 5915 5919 5922 5924 5927 5924 5924 5925 5925 5925 5925 5925 5924 5924 5924 5923 5922 5921 5920 5919 5918 5916 5915 5913 5911 5909 5907 5904 5902 5900 5898 5896 5894 5892 5890
5876 5882 5885 5889 5892 5896 5900 5903 5906 5910 5912 5915 5919 5924 5919 5920 5921 5921 5922 5922 5922 5922 5922 5921 5921 5920 5920 5919 5918 5916 5915 5913 5912 5910 5908 5906 5903 5901 5899 5897 5895 5893 5890 5888
5869 5875 5879 5883 5887 5890 5893 5896 5900 5904 5908 5909 5913 5918 5915 5915 5917 5917 5918 5919 5919 5919 5919 5918 5918 5918 5917 5916 5915 5914 5913 5912 5910 5908 5906 5904 5902 5900 5898 5896 5893 5891 5888 5886
5862 5867 5873 5878 5881 5883 5886 5890 5894 5898 5901 5904 5906 5910 5910 5911 5912 5913 5914 5915 5915 5915 5915 5915 5915 5914 5914 5913 5913 5912 5911 5909 5908 5906 5905 5903 5901 5898 5896 5894 5891 5888 5886 5884
5855 5860 5864 5869 5873 5876 5879 5883 5886 5890 5894 5898 5900 5902 5904 5906 5907 5908 5909 5910 5910 5911 5911 5911 5911 5911 5910 5910 5909 5908 5908 5907 5905 5904 5902 5901 5899 5896 5894 5891 5889 5886 5884 5881
5848 5853 5857 5861 5865 5868 5872 5875 5879 5882 5886 5890 5892 5895 5897 5899 5901 5902 5904 5905 5906 5906 5906 5906 5907 5906 5906 5906 5905 5904 5904 5903 5902 5901 5900 5898 5896 5893 5891 5889 5886 5884 5881 5878
5841 5846 5850 5854 5858 5861 5864 5868 5872 5875 5878 5882 5885 5888 5890 5892 5894 5896 5897 5899 5900 5901 5901 5901 5902 5902 5902 5901 5901 5900 5900 5899 5899 5898 5896 5895 5892 5890 5888 5885 5883 5880 5878 5875
5834 5839 5843 5848 5850 5853 5859 5861 5864 5867 5871 5874 5877 5880 5882 5885 5887 5889 5891 5892 5893 5894 5895 5896 5896 5896 5896 5896 5896 5896 5896 5895 5894 5893 5892 5891 5889 5886 5884 5882 5879 5876 5874 5871
5827 5832 5836 5840 5843 5846 5849 5852 5856 5859 5862 5866 5868 5871 5874 5877 5880 5881 5883 5885 5886 5887 5888 5889 5890 5890 5890 5891 5891 5891 5891 5890 5889 5888 5887 5886 5884 5882 5880 5878 5875 5872 5869 5867
5819 5824 5829 5832 5836 5839 5842 5845 5849 5852 5854 5857 5860 5863 5866 5869 5872 5874 5876 5877 5879 5880 5881 5882 5883 5884 5885 5885 5885 5885 5885 5884 5884 5883 5882 5881 5879 5877 5875 5873 5870 5867 5864 5862
5811 5815 5820 5823 5827 5830 5833 5837 5840 5844 5846 5849 5852 5855 5858 5860 5863 5866 5867 5869 5871 5872 5874 5874 5875 5877 5878 5878 5879 5879 5879 5878 5877 5877 5876 5875 5873 5872 5870 5867 5865 5862 5860 5858
5803 5807 5811 5815 5819 5823 5824 5828 5832 5835 5838 5840 5843 5846 5849 5851 5854 5857 5859 5860 5862 5864 5866 5867 5868 5869 5870 5870 5871 5872 5872 5871 5870 5870 5869 5868 5867 5865 5863 5861 5859 5857 5854 5853
5794 5799 5802 5806 5811 5813 5816 5819 5822 5825 5829 5831 5834 5837 5840 5842 5845 5848 5850 5852 5853 5855 5857 5858 5859 5860 5861 5862 5863 5864 5864 5863 5863 5863 5863 5862 5860 5858 5857 5855 5853 5850 5848 5847
5785 5789 5793 5797 5800 5803 5806 5809 5813 5816 5819 5822 5825 5828 5830 5833 5835 5838 5840 5842 5844 5846 5847 5849 5850 5851 5852 5854 5854 5855 5855 5856 5856 5856 5855 5854 5852 5850 5849 5848 5846 5844 5842 5840
5777 5780 5784 5787 5791 5794 5797 5800 5804 5807 5810 5813 5816 5818 5821 5823 5826 5828 5830 5832 5834 5836 5838 5839 5841 5842 5843 5844 5845 5846 5846 5847 5847 5847 5846 5845 5844 5843 5842 5840 5838 5837 5835 5833
5768 5772 5775 5778 5782 5785 5788 5791 5794 5797 5801 5803 5806 5809 5811 5813 5816 5818 5820 5822 5824 5826 5828 5830 5831 5832 5834 5835 5836 5836 5837 5838 5838 5837 5837 5836 5835 5835 5834 5832 5830 5828 5827 5825